Dewpoint
18 17 18 18 17 16 19 15 10 3 12 12 17 17 17 17 17 19 23 31 34 35 36 36 36 36 38 39 40 41 41 43 46 46 47 48 49 49 49 49 49 49 50 50
15 17 18 17 18 18 18 17 18 16 14 16 16 18 18 19 21 24 27 31 33 35 36 36 36 36 37 39 40 41 41 42 43 44 45 46 47 48 47 46 46 47 47 47
6 13 17 11 15 17 17 17 17 15 14 15 15 16 18 19 20 24 28 30 32 35 36 36 36 36 37 39 40 40 40 41 42 42 42 43 44 45 46 45 44 44 44 45
14 16 -2 10 15 15 14 15 17 15 14 15 16 18 20 21 20 21 24 28 32 35 36 37 36 36 37 39 40 40 40 40 41 41 41 41 41 41 42 43 42 42 42 43
14 14 10 8 16 13 9 -1 13 14 13 14 17 19 15 18 20 20 23 27 32 35 36 37 36 36 37 39 39 39 40 40 40 40 40 40 39 39 40 40 40 40 41 41
20 13 -1 2 3 15 13 -6 2 13 9 11 16 8 8 12 21 24 26 29 32 35 36 37 36 36 36 38 38 38 39 40 41 40 39 39 39 39 39 39 39 40 40 40
20 18 15 16 12 18 -4 -4 7 13 10 14 12 11 12 19 24 26 25 29 34 36 36 36 37 36 35 37 37 39 39 39 40 40 39 39 39 39 39 39 38 38 38 38
20 18 12 17 19 2 1 6 8 11 11 14 16 17 17 19 26 25 28 30 35 36 36 37 37 36 35 36 37 39 39 38 39 39 39 37 37 37 38 37 36 36 37 36
16 15 16 20 13 13 16 13 12 11 12 12 13 14 14 16 19 24 28 31 35 36 36 36 37 37 36 36 37 38 38 37 37 38 37 37 36 35 35 35 35 35 35 34
15 17 17 17 19 21 20 19 19 19 19 20 19 19 19 19 20 22 27 29 33 36 36 36 36 37 37 36 37 38 38 37 36 36 36 36 36 35 34 33 34 34 33 32
15 16 16 16 15 14 15 17 19 19 20 21 23 22 22 21 22 22 24 29 32 34 35 36 36 36 37 37 37 37 37 37 36 36 36 35 35 35 34 34 33 33 33 31
23 24 23 23 24 26 24 23 21 22 26 26 23 21 22 22 22 23 24 27 31 33 34 35 36 36 37 37 37 36 36 36 36 36 35 35 34 34 36 35 33 35 34 31
25 26 25 24 24 25 24 23 23 23 24 24 23 21 21 21 22 24 25 26 28 31 33 35 35 35 36 37 36 36 35 35 35 35 35 34 34 33 33 34 33 34 31 30
28 27 26 26 25 24 23 23 24 26 25 24 23 22 21 21 23 25 24 25 27 29 32 34 35 35 35 37 36 36 35 35 35 35 35 34 33 33 32 32 30 29 32 31
28 28 28 28 28 28 28 27 27 27 27 28 30 27 23 22 22 23 25 26 27 29 31 33 34 34 34 36 36 35 35 35 35 35 35 34 33 32 32 32 30 26 27 28
27 27 28 28 28 28 28 29 29 29 29 29 28 26 24 22 22 22 23 26 27 26 29 32 33 33 33 35 35 35 35 35 35 34 34 34 33 32 31 31 28 25 24 24
26 26 27 27 28 29 29 29 30 29 29 29 28 27 25 24 23 22 22 24 27 27 30 32 32 33 33 34 35 35 35 36 35 34 34 34 33 31 31 30 27 25 25 27
27 27 27 28 28 28 28 29 30 29 29 29 28 27 25 24 23 23 24 25 28 30 32 33 33 33 33 34 35 35 35 35 35 34 34 33 32 31 30 28 25 25 26 26
30 29 29 29 28 28 27 27 27 28 28 28 27 25 25 25 25 25 26 28 28 29 30 33 33 33 33 34 35 35 35 35 34 33 33 33 32 29 28 26 26 25 25 25
33 35 31 29 27 26 26 26 26 26 26 25 24 23 23 24 25 26 27 28 29 30 32 32 33 32 33 35 35 34 34 34 33 32 31 30 28 27 26 26 25 24 22 22
31 29 31 29 30 29 28 28 27 26 25 25 25 24 24 25 28 29 28 27 29 32 32 33 33 32 33 35 34 33 33 32 31 30 30 28 27 25 25 23 22 21 21 19
28 28 27 28 30 32 32 32 32 31 28 27 27 27 27 28 29 30 31 30 31 33 33 33 32 33 34 34 32 32 31 30 29 28 27 26 24 23 21 20 19 18 16 15
26 27 27 27 27 30 31 31 29 28 29 29 29 29 29 29 30 29 29 32 33 34 32 32 33 35 34 32 31 30 28 28 27 26 25 23 22 20 19 17 16 14 13 14
24 26 25 27 27 27 28 30 28 27 28 29 29 30 30 30 31 31 32 33 34 32 32 33 35 34 31 29 28 28 27 26 25 23 22 21 19 18 16 15 13 14 14 15
24 27 26 26 26 26 26 29 28 28 28 28 29 30 31 31 30 31 32 33 32 32 33 35 34 30 28 27 26 25 24 23 22 21 19 17 15 14 13 13 14 15 16 15
24 25 25 27 27 27 27 28 28 28 28 27 28 29 29 30 31 30 30 30 31 32 31 28 27 26 26 25 24 22 21 22 20 17 15 14 13 13 14 14 15 15 15 15
24 27 27 27 27 27 27 28 28 28 28 28 27 28 28 29 29 29 30 29 28 27 27 26 25 25 23 21 20 19 18 17 16 15 13 13 13 14 15 15 15 15 15 15
Wind_Speed
24 30 25 28 25 20 24 21 14 11 15 23 16 19 24 21 22 21 21 16 14 11 8 6 7 9 10 11 14 14 14 14 16 17 17 18 18 17 18 15 14 17 14 9
20 14 13 19 25 27 28 30 34 34 42 37 35 21 19 18 13 15 16 17 15 13 10 8 6 6 7 8 11 12 14 14 14 14 15 17 17 17 19 18 19 22 20 15
10 9 18 14 15 22 12 11 28 22 25 13 15 15 16 16 13 16 18 19 17 16 14 10 8 5 3 4 5 8 11 12 12 12 13 15 15 15 15 17 20 21 15 17
11 15 5 2 4 12 20 16 28 21 29 22 21 14 15 16 19 21 20 19 18 16 14 12 9 7 4 3 2 5 7 8 10 11 12 13 16 15 14 15 18 21 18 20
6 6 16 6 3 7 8 13 20 33 30 24 11 10 25 20 21 23 21 21 20 19 15 13 12 9 7 5 2 3 4 6 7 8 10 11 15 16 12 16 18 18 15 17
3 6 7 3 1 3 2 9 4 20 21 17 4 6 11 5 9 14 16 15 17 17 15 14 14 10 9 8 6 5 4 3 4 8 9 11 12 14 13 15 15 14 16 15
14 9 16 15 7 6 2 5 4 7 14 9 12 15 4 3 9 9 10 15 14 16 21 21 15 13 13 10 10 8 7 6 4 3 8 10 11 12 14 15 15 14 15 13
9 10 14 11 7 8 5 3 5 6 10 16 19 24 19 15 14 13 14 12 15 19 21 18 16 16 15 15 11 10 8 7 7 6 5 6 10 9 11 13 15 13 13 12
19 16 6 15 14 14 9 11 15 12 16 18 20 18 22 19 18 19 17 17 16 21 22 18 18 19 19 19 12 12 10 10 8 6 6 6 9 9 8 8 9 8 9 9
10 12 30 31 27 22 26 24 25 23 24 23 26 24 24 23 20 19 19 20 19 19 21 22 21 22 23 16 16 14 14 13 11 10 8 6 6 7 8 8 8 8 6 6
29 31 29 32 26 27 31 24 20 21 19 22 21 25 22 25 25 24 22 19 18 22 23 25 19 22 21 19 18 18 16 14 13 12 11 9 6 6 7 4 5 6 5 7
38 33 29 42 30 26 29 24 24 24 21 21 23 28 24 26 23 23 22 19 19 21 22 24 20 22 21 20 21 20 19 17 16 14 12 11 10 7 5 6 5 5 6 7
44 38 41 42 35 30 30 31 27 28 26 28 29 22 25 25 21 24 22 19 20 23 24 21 22 22 21 21 22 22 21 18 16 15 14 13 10 10 8 3 4 5 6 6
37 34 42 32 28 19 20 25 25 24 25 27 27 24 22 24 22 22 24 25 21 20 21 20 21 23 22 22 23 21 19 20 18 16 16 16 15 13 10 12 10 5 5 5
35 33 39 38 39 39 36 33 32 31 31 31 26 25 21 23 24 25 25 23 20 18 18 18 20 22 20 22 23 22 20 17 17 17 17 17 14 13 12 10 9 8 6 3
28 23 28 29 29 32 29 29 30 30 29 27 26 23 22 22 24 22 20 17 15 20 21 19 21 20 20 22 22 19 18 20 19 18 17 15 13 13 12 10 9 9 9 8
31 36 33 29 27 27 28 26 26 28 28 25 27 24 19 19 18 18 17 16 17 19 16 18 22 16 20 21 22 18 17 16 17 15 16 16 15 15 11 8 10 10 8 8
24 26 30 30 31 30 29 30 29 24 24 25 22 19 16 16 19 18 16 12 11 13 14 15 12 15 17 19 20 18 18 16 15 16 14 13 14 12 10 10 11 10 7 5
16 22 25 23 20 20 19 21 22 21 20 21 17 17 13 10 10 12 9 7 8 10 11 10 12 16 17 18 20 17 18 19 17 15 14 14 10 10 11 11 11 9 8 5
25 26 26 23 21 19 18 11 16 17 15 11 9 7 6 4 4 6 4 6 6 6 3 7 13 14 15 20 20 17 17 17 16 14 13 13 11 11 11 10 10 9 7 6
21 22 30 29 22 18 11 10 12 16 16 9 7 7 5 3 2 2 1 4 4 3 4 8 12 13 13 17 16 18 18 17 15 15 14 12 12 13 13 12 10 9 7 5
25 19 21 21 20 17 12 12 13 13 13 13 10 8 6 5 4 3 2 2 5 2 6 9 11 16 18 20 16 17 16 16 14 14 14 14 14 14 12 11 9 7 5 4
26 23 21 21 17 15 12 5 5 6 8 9 8 7 4 2 2 3 4 2 4 6 7 7 12 19 21 16 16 17 16 16 15 15 15 15 15 13 12 10 8 6 4 2
22 24 24 19 13 12 16 6 4 3 3 1 3 4 4 1 1 1 2 3 8 7 9 11 15 21 17 15 15 14 15 14 14 14 15 15 14 13 12 10 8 5 3 1
23 23 22 21 21 20 15 9 2 3 3 2 4 5 4 2 2 1 6 10 9 9 11 15 21 17 15 14 14 14 14 14 14 15 15 14 13 13 11 9 7 4 2 1
24 22 18 20 21 19 15 9 11 4 4 1 1 4 4 3 5 6 10 12 12 13 14 13 13 14 15 15 15 15 16 16 15 13 14 14 14 12 11 8 5 2 1 3
21 20 19 20 19 20 18 15 13 10 6 5 3 3 4 6 9 9 9 12 14 13 12 12 12 14 16 16 16 15 14 15 14 15 14 15 13 12 9 6 3 1 3 5
Wind_Direction
254 263 263 259 248 229 223 225 235 271 249 271 263 266 272 273 275 270 262 242 241 240 245 267 303 323 340 348 2 1 5 6 15 8 12 21 36 40 48 48 64 67 62 53
293 268 252 254 249 237 235 241 244 256 276 278 275 266 268 264 261 261 245 232 241 235 229 243 263 301 328 350 6 7 17 19 9 18 26 29 25 39 54 52 58 68 60 46
273 323 314 281 245 203 203 212 223 234 240 253 268 267 263 256 251 248 246 244 232 222 225 232 232 231 288 344 24 31 27 22 26 28 35 41 38 41 54 65 65 57 60 48
284 329 277 265 205 189 218 237 212 240 253 249 256 268 276 257 261 262 247 244 238 224 216 218 215 219 214 184 102 81 63 47 39 46 51 48 61 56 52 61 67 65 45 52
275 286 295 291 187 172 198 289 223 226 252 261 267 287 288 267 247 248 244 239 231 218 214 209 210 209 199 191 165 107 93 86 76 65 66 62 69 70 64 69 68 69 60 60
313 276 277 290 195 178 164 294 222 205 247 260 194 272 297 271 233 250 249 234 225 211 208 205 216 205 203 205 190 176 163 136 117 111 98 89 89 92 86 81 80 80 79 69
232 262 275 265 224 142 249 314 321 218 247 230 217 231 282 237 229 253 255 228 218 203 201 209 207 200 215 214 217 198 182 161 141 119 119 121 116 117 112 104 97 89 85 76
185 214 279 185 126 199 238 263 273 263 268 246 244 258 276 266 258 253 255 232 214 206 210 212 205 199 217 224 220 194 189 179 168 156 139 125 120 116 122 119 111 108 104 88
201 219 253 196 230 233 251 271 273 270 271 258 258 259 265 265 261 256 243 244 223 213 217 211 207 202 213 226 210 197 192 192 185 165 151 148 137 133 122 115 117 116 108 105
269 243 254 260 257 258 265 259 266 266 270 273 269 268 268 271 267 261 250 236 231 223 223 228 211 205 215 215 206 201 203 197 189 180 165 151 143 141 138 142 140 144 136 122
263 272 275 264 258 265 269 267 269 271 270 279 273 273 266 270 266 260 253 244 220 224 228 232 217 214 210 207 199 205 208 204 198 192 180 165 147 150 148 145 159 164 157 152
258 269 269 274 272 276 273 270 269 269 284 276 270 271 265 263 255 255 252 243 234 225 224 233 216 217 212 200 193 198 204 205 204 197 189 181 167 139 88 111 91 91 120 134
254 263 260 269 276 277 278 280 273 273 271 272 276 264 261 260 256 252 250 243 234 233 229 226 217 214 209 197 193 197 199 200 199 196 191 186 181 174 164 102 82 119 123 121
249 262 270 271 274 273 270 275 274 267 269 269 271 272 262 259 258 244 247 244 238 234 233 225 214 217 204 191 192 196 199 196 191 191 191 189 188 190 185 181 185 184 197 182
267 267 268 276 281 281 278 280 281 279 280 280 275 267 261 255 258 253 244 241 234 233 233 223 217 222 198 188 190 193 193 193 190 189 190 192 188 183 179 180 180 174 168 169
296 291 276 270 269 274 279 279 278 277 279 280 278 269 261 252 256 255 246 237 223 235 232 220 220 219 191 187 188 189 190 190 187 186 180 177 178 177 178 179 184 183 179 181
286 288 289 285 279 275 276 277 272 270 275 274 273 270 261 257 264 268 257 245 236 242 231 215 225 197 190 185 181 181 179 181 180 177 175 174 174 180 186 189 190 183 185 181
293 289 282 280 282 287 287 283 281 277 271 269 267 266 267 263 263 266 267 264 250 248 234 225 209 188 183 178 173 167 168 166 165 171 171 171 175 180 181 183 184 179 171 163
351 341 327 311 304 302 293 292 296 293 284 277 268 262 259 267 283 282 283 264 251 250 254 208 196 183 181 177 163 157 157 159 163 166 168 170 169 170 170 173 170 158 153 143
0 347 329 309 311 309 295 324 327 319 313 308 289 271 275 285 274 274 281 270 259 243 227 194 175 178 176 168 154 150 149 153 158 160 159 155 161 162 158 158 155 149 141 127
322 354 338 312 309 306 311 12 14 341 331 325 308 301 291 289 258 217 237 301 309 237 186 164 164 161 156 150 145 144 145 148 151 157 153 153 151 156 155 154 153 148 135 124
318 317 323 313 304 307 327 5 15 357 350 352 357 355 347 359 19 34 32 315 334 148 145 155 155 152 146 139 138 138 141 144 147 148 149 152 158 159 155 147 143 135 130 125
300 306 318 324 311 301 295 327 352 341 334 339 337 332 339 329 354 11 34 38 122 141 136 141 143 143 136 132 135 138 141 144 151 148 151 153 151 152 150 147 143 143 143 138
293 302 312 310 293 279 273 269 267 225 219 290 333 331 286 260 25 31 62 99 126 126 127 133 144 136 127 124 126 131 133 135 138 139 139 139 141 142 138 142 146 150 148 124
292 290 296 303 295 281 273 261 200 263 258 33 13 340 324 337 331 137 107 101 98 104 113 136 126 117 113 117 121 123 126 131 135 135 136 139 139 136 138 144 148 159 192 254
285 279 281 283 277 278 278 282 272 236 223 233 342 316 315 53 92 104 100 103 102 99 107 109 109 112 116 119 123 127 130 132 133 139 141 141 139 139 143 150 158 165 257 301
277 271 277 286 284 271 265 259 249 245 214 212 226 210 203 124 114 111 112 107 105 106 105 106 110 115 118 120 123 124 124 125 136 142 142 139 140 142 143 146 156 248 295 299